This demonstration page uses our WeatherBlox Daily Observations layout. Learn more.

38.89511, -77.03637

Hourly Observations for February 24, 2015

Temp ( °F °C ) Dew Point ( °F °C ) Humidity (%) Winds ( mph kmh ) Pressure ( in mb ) Visibility ( mi km ) Precip ( " mm )
12:52 am 00:52 Partly Cloudy 18 -7.8 -7 -21.7 32 32 NNW 10 17 30.42 1030 10 16.0934 0 0
1:52 am 01:52 Mostly Clear 17 -8.3 -6 -21.1 35 35 NNW 7 11 30.42 1030 10 16.0934 0 0
2:52 am 02:52 Partly Cloudy 16 -8.9 -6 -21.1 37 37 NNW 8 13 30.39 1029 10 16.0934 0 0
3:52 am 03:52 Mostly Cloudy 16 -8.9 -6 -21.1 37 37 NNW 7 11 30.37 1029 10 16.0934 0 0
4:52 am 04:52 Partly Cloudy 16 -8.9 -3 -19.4 43 43 NNE 3 6 30.36 1028 10 16.0934 0 0
5:52 am 05:52 Mostly Cloudy 16 -8.9 -5 -20.6 38 38 NE 7 11 30.35 1028 10 16.0934 0 0
6:52 am 06:52 Partly Cloudy 15 -9.4 -4 -20 42 42 ENE 6 9 30.34 1028 10 16.0934 0 0
7:52 am 07:52 Mostly Cloudy 16 -8.9 -5 -20.6 38 38 ENE 5 7 30.35 1028 10 16.0934 0 0
8:52 am 08:52 Partly Cloudy 17 -8.3 -6 -21.1 35 35 ESE 5 7 30.34 1028 10 16.0934 0 0
9:52 am 09:52 Partly Cloudy 20 -6.7 -1 -18.3 40 40 SSW 7 11 30.32 1027 10 16.0934 0 0
10:52 am 10:52 Partly Cloudy 22 -5.6 1 -17.2 40 40 S 7 11 30.29 1026 10 16.0934 0 0
11:52 am 11:52 Mostly Cloudy 24 -4.4 2 -16.7 38 38 S 12 19 30.24 1024 10 16.0934 0 0
12:52 pm 12:52 Partly Cloudy 27 -2.8 4 -15.6 37 37 S 10 17 30.17 1022 10 16.0934 0 0
1:52 pm 13:52 Partly Cloudy 28 -2.2 5 -15 37 37 S 12 19 30.11 1020 10 16.0934 0 0
2:52 pm 14:52 Partly Cloudy 29 -1.7 6 -14.4 38 38 S 12 19 30.07 1018 10 16.0934 0 0
3:52 pm 15:52 Mostly Cloudy 29 -1.7 6 -14.4 38 38 S 13 20 30.03 1017 10 16.0934 0 0
4:52 pm 16:52 Mostly Cloudy 28 -2.2 7 -13.9 41 41 S 13 20 30.01 1016 10 16.0934 0 0
5:52 pm 17:52 Mostly Cloudy 28 -2.2 8 -13.3 43 43 S 13 20 29.98 1015 10 16.0934 0 0
6:52 pm 18:52 Mostly Cloudy 27 -2.8 9 -12.8 46 46 S 13 20 29.96 1014 10 16.0934 0 0
7:52 pm 19:52 Mostly Cloudy 27 -2.8 11 -11.7 51 51 S 8 13 29.95 1014 10 16.0934 0 0
8:52 pm 20:52 Partly Cloudy 26 -3.3 12 -11.1 55 55 S 8 13 29.92 1013 10 16.0934 0 0
9:52 pm 21:52 Mostly Clear 25 -3.9 11 -11.7 55 55 SSW 6 9 29.91 1013 10 16.0934 0 0
10:52 pm 22:52 Partly Cloudy 25 -3.9 10 -12.2 53 53 S 7 11 29.87 1012 10 16.0934 0 0
11:52 pm 23:52 Partly Cloudy 24 -4.4 11 -11.7 57 57 SW 6 9 29.86 1011 10 16.0934 0 0

Powered by AerisWeather